Location: Trebic
(49.2170°N, 15.8830°E)
Time: 01:05:48
(UTC+01:00)

Transit 4A - Pass Details

Date: 05 November 2020
Orbit: 862 x 982 km, 66.8° (Epoch: 28 November)

Event Time Altitude Azimuth Distance (km) Brightness Sun altitude
Rises 21:11:35 0° 324° (NW) 3,696 11.7 -45.2°
Reaches altitude 10° 21:14:12 10° 327° (NNW) 2,744 10.9 -45.5°
Enters shadow 21:15:33 17° 330° (NNW) 2,270 10.3 -45.7°
